Hudson Falls, NY

3:57 AM EDT on September 25, 2016 (GMT -0400)
Bennett Memorial

Weather History for KGFL - September, 2014

Change the Weather History Date:

Tuesday, September 2, 2014

  Actual Average Record
Temperature  
Mean Temperature 74 °F 64 °F  
Max Temperature 85 °F 76 °F 97 °F (1953)
Min Temperature 63 °F 52 °F 37 °F (1991)
Degree Days  
Heating Degree Days 0 3  
Month to date heating degree days 0 6  
Since 1 July heating degree days 15 72  
Cooling Degree Days 9 2  
Month to date cooling degree days 19 4  
Year to date cooling degree days 357 331  
Growing Degree Days 24 (Base 50)    
Moisture  
Dew Point 66 °F    
Average Humidity 81    
Maximum Humidity 100    
Minimum Humidity 61    
Precipitation  
Precipitation 0.56 in 0.10 in 1.00 in (2013)
Month to date precipitation 0.56 0.20  
Year to date precipitation 26.60 26.01  
Sea Level Pressure  
Sea Level Pressure 29.83 in    
Wind  
Wind Speed 5 mph (SSW)    
Max Wind Speed 20 mph    
Max Gust Speed 26 mph    
Visibility 5 miles    
Events Fog , Rain    
T = Trace of Precipitation, MM = Missing Value Source: NWS Daily Summary

Daily Weather History Graph

Daily Weather History Graph

Search for Another Location

Airport or City:

Trip Planner

Search our weather history database for the weather conditions in past years. The results will help you decide how hot, cold, wet, or windy it might be!

Date:

Astronomy

Sep. 02, 2014 Rise Set
Actual Time 6:19 AM EDT 7:27 PM EDT
Civil Twilight 5:50 AM EDT 7:57 PM EDT
Nautical Twilight 5:15 AM EDT 8:32 PM EDT
Astronomical Twilight 4:38 AM EDT 9:08 PM EDT
Moon 2:13 PM EDT (9/2) No Moon Set
Length of Visible Light 14h 06m
Length of Day
13h 08m
First Quarter, 52% of the Moon is Illuminated
Sep 2
First Quarter
Sep 8
Full
Sep 15
Last Quarter
Sep 24
New
Oct 1
First Quarter

Hourly Weather History & Observations

Time (EDT) Temp. Heat Index Dew Point Humidity Pressure Visibility Wind Dir Wind Speed Gust Speed Precip Events Conditions
12:53 AM 68.0 °F - 64.9 °F 90% 29.89 in 10.0 mi Calm Calm - N/A   Mostly Cloudy
1:53 AM 66.9 °F - 64.9 °F 93% 29.87 in 6.0 mi Calm Calm - N/A   Partly Cloudy
2:24 AM 66.0 °F - 64.9 °F 96% 29.87 in 1.8 mi Calm Calm - N/A   Partly Cloudy
2:42 AM 66.0 °F - 64.0 °F 93% 29.87 in 3.0 mi Calm Calm - N/A   Clear
2:53 AM 64.9 °F - 64.0 °F 97% 29.86 in 5.0 mi Calm Calm - N/A   Partly Cloudy
2:59 AM 64.9 °F - 64.0 °F 97% 29.87 in 1.5 mi Calm Calm - N/A   Partly Cloudy
3:07 AM 64.9 °F - 64.0 °F 97% 29.86 in 0.8 mi Calm Calm - N/A   Partly Cloudy
3:15 AM 64.9 °F - 64.0 °F 97% 29.86 in 1.2 mi Calm Calm - N/A   Partly Cloudy
3:27 AM 64.9 °F - 63.0 °F 93% 29.86 in 3.0 mi Calm Calm - N/A   Clear
3:53 AM 66.0 °F - 64.0 °F 93% 29.86 in 5.0 mi Calm Calm - N/A   Clear
4:53 AM 66.0 °F - 64.0 °F 93% 29.85 in 5.0 mi Calm Calm - N/A   Partly Cloudy
5:08 AM 64.9 °F - 63.0 °F 93% 29.86 in 2.5 mi Calm Calm - N/A   Mostly Cloudy
5:11 AM 64.9 °F - 63.0 °F 93% 29.86 in 0.8 mi Calm Calm - N/A   Mist
5:25 AM 64.9 °F - 62.1 °F 90% 29.86 in 1.0 mi North 3.5 mph - N/A   Mist
5:32 AM 64.0 °F - 62.1 °F 93% 29.86 in 0.8 mi NNE 4.6 mph - N/A   Mist
5:40 AM 63.0 °F - 63.0 °F 100% 29.86 in 1.5 mi Calm Calm - N/A   Mostly Cloudy
5:42 AM 63.0 °F - 63.0 °F 100% 29.86 in 2.0 mi Calm Calm - N/A   Scattered Clouds
5:53 AM 64.9 °F - 63.0 °F 93% 29.86 in 1.8 mi Calm Calm - N/A   Scattered Clouds
5:56 AM 64.9 °F - 63.0 °F 93% 29.86 in 3.0 mi Calm Calm - N/A   Scattered Clouds
6:07 AM 64.0 °F - 62.1 °F 93% 29.87 in 4.0 mi Calm Calm - N/A   Mostly Cloudy
6:22 AM 64.9 °F - 62.1 °F 90% 29.88 in 8.0 mi Calm Calm - N/A   Overcast
6:32 AM 64.9 °F - 63.0 °F 93% 29.88 in 1.2 mi Calm Calm - N/A   Overcast
6:39 AM 64.9 °F - 63.0 °F 93% 29.88 in 0.5 mi Calm Calm - N/A Fog Fog
6:43 AM 64.9 °F - 63.0 °F 93% 29.88 in 1.0 mi Calm Calm - N/A   Overcast
6:53 AM 64.0 °F - 63.0 °F 96% 29.88 in 0.5 mi Calm Calm - N/A Fog Fog
7:00 AM 64.9 °F - 64.0 °F 97% 29.88 in 1.0 mi Calm Calm - N/A   Overcast
7:15 AM 64.9 °F - 64.0 °F 97% 29.89 in 2.5 mi Calm Calm - N/A   Overcast
7:33 AM 66.9 °F - 64.9 °F 93% 29.89 in 4.0 mi Calm Calm - N/A   Overcast
7:53 AM 68.0 °F - 66.0 °F 93% 29.88 in 6.0 mi Calm Calm - N/A   Overcast
8:08 AM 69.1 °F - 66.9 °F 93% 29.88 in 2.5 mi Calm Calm - N/A   Overcast
8:17 AM 70.0 °F - 68.0 °F 93% 29.88 in 4.0 mi Calm Calm - N/A   Overcast
8:45 AM 73.9 °F - 70.0 °F 87% 29.88 in 6.0 mi South 9.2 mph - N/A   Scattered Clouds
8:53 AM 73.9 °F - 71.1 °F 91% 29.88 in 7.0 mi South 9.2 mph - N/A   Scattered Clouds
9:53 AM 73.9 °F - 70.0 °F 87% 29.88 in 7.0 mi South 5.8 mph - N/A   Overcast
10:53 AM 73.9 °F - 71.1 °F 91% 29.88 in 6.0 mi South 3.5 mph - 0.00 in   Overcast
11:53 AM 78.1 °F - 71.1 °F 79% 29.86 in 9.0 mi SSW 10.4 mph - N/A   Mostly Cloudy
12:53 PM 81.0 °F 85.2 °F 72.0 °F 74% 29.84 in 10.0 mi South 9.2 mph - N/A   Scattered Clouds
1:53 PM 82.9 °F 88.0 °F 72.0 °F 69% 29.81 in 10.0 mi South 10.4 mph - N/A   Mostly Cloudy
2:53 PM 84.0 °F 89.0 °F 71.1 °F 65% 29.79 in 10.0 mi South 9.2 mph - N/A   Partly Cloudy
3:53 PM 82.9 °F 86.5 °F 69.1 °F 63% 29.77 in 10.0 mi South 10.4 mph 18.4 mph N/A   Partly Cloudy
4:53 PM 84.0 °F 88.4 °F 70.0 °F 63% 29.75 in 10.0 mi South 9.2 mph - N/A   Partly Cloudy
5:53 PM 82.0 °F 85.9 °F 70.0 °F 67% 29.73 in 10.0 mi South 8.1 mph - N/A   Clear
6:53 PM 80.1 °F 83.2 °F 70.0 °F 71% 29.71 in 10.0 mi South 5.8 mph - N/A   Clear
7:53 PM 77.0 °F - 70.0 °F 79% 29.70 in 10.0 mi South 5.8 mph - N/A   Partly Cloudy
8:53 PM 77.0 °F - 71.1 °F 82% 29.70 in 10.0 mi WNW 5.8 mph - N/A   Overcast
9:14 PM 71.1 °F - 69.1 °F 93% 29.73 in 2.0 mi NW 18.4 mph 26.5 mph 0.15 in Rain Rain
9:23 PM 71.1 °F - 68.0 °F 90% 29.74 in 1.8 mi NNW 13.8 mph 25.3 mph 0.32 in Rain Light Rain
9:27 PM 71.1 °F - 66.9 °F 87% 29.74 in 4.0 mi NNW 13.8 mph 23.0 mph 0.32 in Rain Light Rain
9:35 PM 71.1 °F - 66.9 °F 87% 29.74 in 10.0 mi NNW 9.2 mph 18.4 mph 0.32 in   Overcast
9:53 PM 71.1 °F - 66.9 °F 87% 29.76 in 9.0 mi WNW 6.9 mph - 0.33 in   Overcast
10:11 PM 70.0 °F - 66.9 °F 90% 29.76 in 1.8 mi Variable 3.5 mph - 0.15 in Rain Heavy Rain
10:22 PM 70.0 °F - 68.0 °F 93% 29.76 in 4.0 mi ESE 3.5 mph - 0.18 in Rain Light Rain
10:53 PM 71.1 °F - 66.0 °F 84% 29.76 in 9.0 mi Calm Calm - 0.21 in Rain Light Rain
11:36 PM 69.1 °F - 68.0 °F 96% 29.77 in 10.0 mi Calm Calm - 0.01 in   Mostly Cloudy
11:53 PM 69.1 °F - 68.0 °F 96% 29.77 in 9.0 mi SSW 4.6 mph - 0.01 in Rain Light Rain